Regional Weather Roundup
Issued by NWS New Orleans/Baton Rouge, LA

Home | Current Version | Previous Version | Text Only | Print | Product List | Glossary On
Versions: 1 2 3 4 5 6 7 8 9 10 11 12 13 14 15 16 17 18 19 20 21 22 23 24 25 26 27 28
000
ASUS44 KLIX 281513
RWRLIX
NEW ORLEANS REGIONAL WEATHER ROUNDUP
NATIONAL WEATHER SERVICE NEW ORLEANS LA
1000 AM CDT SUN MAY 28 2017

NOTE: "FAIR" INDICATES FEW OR NO CLOUDS BELOW 12,000 FEET WITH NO
      SIGNIFICANT WEATHER AND/OR OBSTRUCTIONS TO VISIBILITY.
      SKY/WX - SKY CONDITION AND SIGNIFICANT WEATHER.
      TMP - AIR TEMPERATURE.     DP    - DEWPOINT TEMPERATURE.
      RH  - RELATIVE HUMIDITY.   PRES  - PRESSURE.
      HI  - HEAT INDEX.          WCI   - WIND CHILL INDEX.

*  THESE STATIONS ARE NOT NWS OR FAA STATIONS AND ARE NOT UNDER
   NWS QUALITY CONTROL.

LAZ038-040-048-061>063-065>067-069-281600-
SOUTHEAST LOUISIANA

CITY           SKY/WX    TMP DP  RH WIND       PRES   REMARKS
N.O. INTL ARPT PTSUNNY   83  73  72 CALM      30.06S
N.O. LAKEFRONT CLOUDY    82  76  81 W3        30.06S
N.O. DOWNTOWN*   N/A     83  73  72 CALM        N/A
RESERVE*       CLOUDY    85  73  69 CALM      30.05F
SLIDELL        CLOUDY    84  73  69 W5        30.04F
BATON ROUGE    MOSUNNY   83  76  79 SE8       30.03F
BOOTHVILLE     MOSUNNY   82  76  81 S9        30.06F
BELLE CHASSE   PTSUNNY   82  74  76 VRB6      30.05S
BOGALUSA*      PTSUNNY   86  73  64 SW9       30.06S
GALLIANO*      MOSUNNY   83  72  68 W7        30.06S
NEW ROADS*     CLOUDY    84  77  79 S9        30.03F
GONZALES*        N/A     83  73  72 S3        30.04F
HAMMOND*       CLOUDY    84  72  65 SW5       30.05S
HOUMA*         MOSUNNY   82  73  74 CALM      30.06S
PORT FOURCHON* PTSUNNY   82  73  74 SW6       30.06S

$$

MSZ070-080>082-281600-
SOUTHERN MISSISSIPPI

CITY           SKY/WX    TMP DP  RH WIND       PRES   REMARKS
MCCOMB         PTSUNNY   82  73  74 S7        30.05S
GULFPORT       CLOUDY    84  75  74 CALM      30.04S
BILOXI         MOSUNNY   81  76  84 E5        30.05S
PASCAGOULA     LGT RAIN  76  73  91 CALM      30.05S
STENNIS ARPT*  MOSUNNY   82  73  74 N7        30.05S

$$

COASTAL OBSERVATIONS
LAKE AND NEARSHORE STATIONS

STATION/POSITION TIME  TEMP    WIND        PRES    WAVE
                       AIR SEA DIR/SP/G            HT/PER
                 (UTC) (F)     (DEG/KT/KT) (MB)    (FT/S)
PASCAGOULA       1448   76     220/  7/  9 1017.8
WAVELAND YACHT   1448   83 81  290/  6/  9 1017.3
GRAND ISLE       1448   82 80  160/  4/  7 1017.9
SOUTHWEST PASS   1448          140/  2/  3   N/A
NEW CANAL        1448   81 80  250/  2/  4 1017.7
SHELL BEACH      1448   80 82  330/  6/  7 1018.1

OFFSHORE STATIONS

STATION/POSITION TIME  TEMP    WIND        PRES    WAVE
                       AIR SEA DIR/SP/G            HT/PER
                 (UTC) (F)     (DEG/KT/KT) (MB)    (FT/S)
64 S DAUPHIN ISL 1450   79 78  200/  8/ 10 1018.5    3/ 5

$$





USA.gov is the U.S. government's official web portal to all federal, state and local government web resources and services.